Time,TemperatureF,DewpointF,PressureIn,WindDirection,WindDirectionDegrees,WindSpeedMPH,WindSpeedGustMPH,Humidity,HourlyPrecipIn,Conditions,Clouds,dailyrainin,SoftwareType,DateUTC
2013-03-02 00:01:00,42.0,20.0,-100.00,SW,220,2.0,4.0,40,-99.99,,,-99.99,,2013-03-02 07:01:00,
2013-03-02 00:11:00,42.0,20.0,-100.00,SW,235,4.0,8.0,39,-99.99,,,-99.99,,2013-03-02 07:11:00,
2013-03-02 00:21:00,43.0,20.0,-100.00,WNW,285,11.0,16.0,39,-99.99,,,-99.99,,2013-03-02 07:21:00,
2013-03-02 00:32:00,42.0,20.0,-100.00,West,260,9.0,14.0,41,-99.99,,,-99.99,,2013-03-02 07:32:00,
2013-03-02 00:41:00,42.0,20.0,-100.00,West,270,9.0,17.0,39,-99.99,,,-99.99,,2013-03-02 07:41:00,
2013-03-02 00:51:00,42.0,20.0,-100.00,WNW,285,4.0,12.0,40,-99.99,,,-99.99,,2013-03-02 07:51:00,
2013-03-02 01:01:00,42.0,19.0,-100.00,NW,310,5.0,11.0,40,-99.99,,,-99.99,,2013-03-02 08:01:00,
2013-03-02 01:11:00,42.0,19.0,-100.00,WNW,285,14.0,21.0,39,-99.99,,,-99.99,,2013-03-02 08:11:00,
2013-03-02 01:21:00,44.0,20.0,-100.00,West,280,17.0,23.0,37,-99.99,,,-99.99,,2013-03-02 08:21:00,
2013-03-02 01:31:00,43.0,19.0,-100.00,WSW,250,14.0,24.0,37,-99.99,,,-99.99,,2013-03-02 08:31:00,
2013-03-02 01:42:00,41.0,19.0,-100.00,South,190,9.0,13.0,39,-99.99,,,-99.99,,2013-03-02 08:42:00,
2013-03-02 01:52:00,41.0,19.0,-100.00,South,190,9.0,13.0,39,-99.99,,,-99.99,,2013-03-02 08:52:00,
2013-03-02 02:01:00,41.0,19.0,-100.00,South,190,9.0,13.0,39,-99.99,,,-99.99,,2013-03-02 09:01:00,
2013-03-02 02:11:00,41.0,19.0,-100.00,South,190,9.0,13.0,39,-99.99,,,-99.99,,2013-03-02 09:11:00,
2013-03-02 02:21:00,41.0,19.0,-100.00,South,190,9.0,13.0,39,-99.99,,,-99.99,,2013-03-02 09:21:00,
2013-03-02 08:22:00,41.0,20.0,-100.00,South,180,5.0,9.0,41,-99.99,,,-99.99,,2013-03-02 15:22:00,
2013-03-02 08:32:00,42.0,20.0,-100.00,SSE,160,7.0,9.0,41,-99.99,,,-99.99,,2013-03-02 15:32:00,
2013-03-02 08:42:00,43.0,20.0,-100.00,SSW,210,4.0,7.0,38,-99.99,,,-99.99,,2013-03-02 15:42:00,
2013-03-02 08:52:00,44.0,20.0,-100.00,SE,125,3.0,6.0,37,-99.99,,,-99.99,,2013-03-02 15:52:00,
2013-03-02 09:01:00,48.0,20.0,-100.00,West,280,9.0,16.0,33,-99.99,,,-99.99,,2013-03-02 16:01:00,
2013-03-02 09:11:00,48.0,20.0,-100.00,NNW,330,7.0,16.0,32,-99.99,,,-99.99,,2013-03-02 16:11:00,
2013-03-02 09:21:00,50.0,20.0,-100.00,NW,320,10.0,20.0,29,-99.99,,,-99.99,,2013-03-02 16:21:00,
2013-03-02 09:31:00,51.0,20.0,-100.00,NNW,340,6.0,20.0,29,-99.99,,,-99.99,,2013-03-02 16:31:00,
2013-03-02 09:41:00,51.0,21.0,-100.00,NW,315,4.0,17.0,29,-99.99,,,-99.99,,2013-03-02 16:41:00,
2013-03-02 09:51:00,44.0,20.0,-100.00,SE,145,7.0,9.0,37,-99.99,,,-99.99,,2013-03-02 16:51:00,
2013-03-02 10:01:00,42.0,20.0,-100.00,SE,135,9.0,14.0,42,-99.99,,,-99.99,,2013-03-02 17:01:00,
2013-03-02 10:11:00,42.0,21.0,-100.00,SE,140,6.0,9.0,42,-99.99,,,-99.99,,2013-03-02 17:11:00,
2013-03-02 10:21:00,43.0,21.0,-100.00,SE,125,12.0,15.0,41,-99.99,,,-99.99,,2013-03-02 17:21:00,
2013-03-02 10:31:00,43.0,21.0,-100.00,ESE,120,10.0,15.0,42,-99.99,,,-99.99,,2013-03-02 17:31:00,
2013-03-02 10:41:00,44.0,22.0,-100.00,ESE,115,10.0,13.0,42,-99.99,,,-99.99,,2013-03-02 17:41:00,
2013-03-02 10:52:00,43.0,22.0,-100.00,SE,145,9.0,12.0,43,-99.99,,,-99.99,,2013-03-02 17:52:00,
2013-03-02 11:01:00,43.0,23.0,-100.00,SE,140,11.0,12.0,43,-99.99,,,-99.99,,2013-03-02 18:01:00,
2013-03-02 11:11:00,44.0,22.0,-100.00,SE,140,11.0,12.0,42,-99.99,,,-99.99,,2013-03-02 18:11:00,
2013-03-02 11:21:00,46.0,23.0,-100.00,SE,135,9.0,10.0,39,-99.99,,,-99.99,,2013-03-02 18:21:00,
2013-03-02 11:31:00,46.0,23.0,-100.00,SE,135,9.0,11.0,40,-99.99,,,-99.99,,2013-03-02 18:31:00,
2013-03-02 11:41:00,44.0,23.0,-100.00,SE,145,10.0,14.0,43,-99.99,,,-99.99,,2013-03-02 18:41:00,
2013-03-02 11:51:00,45.0,23.0,-100.00,SE,140,12.0,13.0,41,-99.99,,,-99.99,,2013-03-02 18:51:00,
2013-03-02 12:01:00,45.0,24.0,-100.00,SE,140,11.0,14.0,43,-99.99,,,-99.99,,2013-03-02 19:01:00,
2013-03-02 12:11:00,45.0,24.0,-100.00,SE,135,13.0,15.0,43,-99.99,,,-99.99,,2013-03-02 19:11:00,
2013-03-02 12:21:00,44.0,24.0,-100.00,SE,140,12.0,14.0,43,-99.99,,,-99.99,,2013-03-02 19:21:00,
2013-03-02 12:31:00,44.0,24.0,-100.00,SE,135,11.0,12.0,43,-99.99,,,-99.99,,2013-03-02 19:31:00,
2013-03-02 12:42:00,44.0,24.0,-100.00,SE,135,11.0,14.0,45,-99.99,,,-99.99,,2013-03-02 19:42:00,
2013-03-02 12:51:00,44.0,24.0,-100.00,SSE,160,11.0,12.0,44,-99.99,,,-99.99,,2013-03-02 19:51:00,
2013-03-02 13:01:00,44.0,24.0,-100.00,SSE,160,11.0,13.0,44,-99.99,,,-99.99,,2013-03-02 20:01:00,
2013-03-02 13:11:00,45.0,24.0,-100.00,SSE,165,11.0,13.0,44,-99.99,,,-99.99,,2013-03-02 20:11:00,
2013-03-02 13:21:00,44.0,24.0,-100.00,SSE,160,10.0,13.0,44,-99.99,,,-99.99,,2013-03-02 20:21:00,
2013-03-02 13:31:00,45.0,24.0,-100.00,South,170,11.0,13.0,43,-99.99,,,-99.99,,2013-03-02 20:31:00,
2013-03-02 13:41:00,45.0,24.0,-100.00,South,170,11.0,12.0,43,-99.99,,,-99.99,,2013-03-02 20:41:00,
2013-03-02 13:52:00,44.0,24.0,-100.00,SSE,155,10.0,12.0,45,-99.99,,,-99.99,,2013-03-02 20:52:00,
2013-03-02 14:02:00,44.0,24.0,-100.00,SE,145,10.0,11.0,45,-99.99,,,-99.99,,2013-03-02 21:02:00,
2013-03-02 14:11:00,43.0,25.0,-100.00,South,180,7.0,10.0,47,-99.99,,,-99.99,,2013-03-02 21:11:00,
2013-03-02 14:21:00,43.0,25.0,-100.00,South,175,10.0,11.0,48,-99.99,,,-99.99,,2013-03-02 21:21:00,
2013-03-02 14:31:00,43.0,25.0,-100.00,South,175,9.0,12.0,48,-99.99,,,-99.99,,2013-03-02 21:31:00,
2013-03-02 14:41:00,44.0,25.0,-100.00,South,180,10.0,11.0,47,-99.99,,,-99.99,,2013-03-02 21:41:00,
2013-03-02 14:52:00,44.0,25.0,-100.00,South,180,9.0,11.0,45,-99.99,,,-99.99,,2013-03-02 21:52:00,
2013-03-02 15:01:00,44.0,25.0,-100.00,South,185,10.0,11.0,46,-99.99,,,-99.99,,2013-03-02 22:01:00,
2013-03-02 15:11:00,44.0,25.0,-100.00,South,175,10.0,11.0,46,-99.99,,,-99.99,,2013-03-02 22:11:00,
2013-03-02 15:21:00,43.0,25.0,-100.00,SSE,155,7.0,9.0,48,-99.99,,,-99.99,,2013-03-02 22:21:00,
2013-03-02 15:31:00,44.0,25.0,-100.00,SSE,165,9.0,11.0,47,-99.99,,,-99.99,,2013-03-02 22:31:00,
2013-03-02 15:41:00,42.0,25.0,-100.00,SSE,150,9.0,12.0,50,-99.99,,,-99.99,,2013-03-02 22:41:00,
2013-03-02 15:51:00,42.0,26.0,-100.00,SSE,155,11.0,14.0,52,-99.99,,,-99.99,,2013-03-02 22:51:00,
2013-03-02 16:01:00,41.0,25.0,-100.00,SE,145,12.0,13.0,52,-99.99,,,-99.99,,2013-03-02 23:01:00,
2013-03-02 16:11:00,41.0,26.0,-100.00,SE,140,12.0,13.0,53,-99.99,,,-99.99,,2013-03-02 23:11:00,
2013-03-02 16:21:00,41.0,26.0,-100.00,SE,140,9.0,12.0,53,-99.99,,,-99.99,,2013-03-02 23:21:00,
2013-03-02 16:31:00,42.0,25.0,-100.00,SE,145,12.0,12.0,51,-99.99,,,-99.99,,2013-03-02 23:31:00,
2013-03-02 16:41:00,40.0,25.0,-100.00,SE,140,12.0,12.0,53,-99.99,,,-99.99,,2013-03-02 23:41:00,
2013-03-02 16:52:00,40.0,25.0,-100.00,SE,145,10.0,12.0,54,-99.99,,,-99.99,,2013-03-02 23:52:00,
2013-03-02 17:02:00,40.0,25.0,-100.00,SSE,155,11.0,12.0,54,-99.99,,,-99.99,,2013-03-03 00:02:00,
2013-03-02 17:11:00,41.0,25.0,-100.00,SSE,155,11.0,13.0,52,-99.99,,,-99.99,,2013-03-03 00:11:00,
2013-03-02 17:22:00,40.0,25.0,-100.00,SSE,150,12.0,12.0,53,-99.99,,,-99.99,,2013-03-03 00:22:00,
2013-03-02 17:31:00,40.0,25.0,-100.00,SE,140,12.0,13.0,55,-99.99,,,-99.99,,2013-03-03 00:31:00,
2013-03-02 17:42:00,38.0,25.0,-100.00,SE,145,12.0,14.0,58,-99.99,,,-99.99,,2013-03-03 00:42:00,
2013-03-02 17:52:00,38.0,26.0,-100.00,SE,130,7.0,12.0,60,-99.99,,,-99.99,,2013-03-03 00:52:00,
2013-03-02 18:01:00,38.0,26.0,-100.00,SSE,150,6.0,8.0,61,-99.99,,,-99.99,,2013-03-03 01:01:00,
2013-03-02 18:11:00,38.0,26.0,-100.00,SE,130,9.0,9.0,62,-99.99,,,-99.99,,2013-03-03 01:11:00,
2013-03-02 18:21:00,38.0,26.0,-100.00,SSE,150,11.0,12.0,62,-99.99,,,-99.99,,2013-03-03 01:21:00,
2013-03-02 18:31:00,38.0,26.0,-100.00,South,170,4.0,11.0,61,-99.99,,,-99.99,,2013-03-03 01:31:00,
2013-03-02 18:41:00,38.0,26.0,-100.00,SE,140,9.0,9.0,63,-99.99,,,-99.99,,2013-03-03 01:41:00,
2013-03-02 18:51:00,37.0,27.0,-100.00,SSE,155,12.0,12.0,65,-99.99,,,-99.99,,2013-03-03 01:51:00,
2013-03-02 19:01:00,38.0,27.0,-100.00,SSE,155,9.0,13.0,65,-99.99,,,-99.99,,2013-03-03 02:01:00,
2013-03-02 19:11:00,38.0,27.0,-100.00,SSE,150,11.0,12.0,63,-99.99,,,-99.99,,2013-03-03 02:11:00,
2013-03-02 19:21:00,38.0,27.0,-100.00,SSE,165,7.0,12.0,64,-99.99,,,-99.99,,2013-03-03 02:21:00,
2013-03-02 19:31:00,39.0,27.0,-100.00,SE,140,7.0,14.0,62,-99.99,,,-99.99,,2013-03-03 02:31:00,
2013-03-02 19:41:00,38.0,27.0,-100.00,SSE,155,10.0,15.0,64,-99.99,,,-99.99,,2013-03-03 02:41:00,
2013-03-02 19:52:00,38.0,27.0,-100.00,SSE,165,7.0,10.0,65,-99.99,,,-99.99,,2013-03-03 02:52:00,
2013-03-02 20:01:00,35.0,27.0,-100.00,South,175,7.0,9.0,70,-99.99,,,-99.99,,2013-03-03 03:01:00,
2013-03-02 20:11:00,35.0,27.0,-100.00,SSW,210,6.0,9.0,73,-99.99,,,-99.99,,2013-03-03 03:11:00,
2013-03-02 20:21:00,37.0,28.0,-100.00,SSE,165,7.0,8.0,68,-99.99,,,-99.99,,2013-03-03 03:21:00,
2013-03-02 20:31:00,38.0,28.0,-100.00,South,175,4.0,6.0,66,-99.99,,,-99.99,,2013-03-03 03:31:00,
2013-03-02 20:41:00,38.0,28.0,-100.00,South,180,5.0,6.0,66,-99.99,,,-99.99,,2013-03-03 03:41:00,
2013-03-02 20:51:00,38.0,27.0,-100.00,SSW,200,4.0,8.0,65,-99.99,,,-99.99,,2013-03-03 03:51:00,
2013-03-02 21:01:00,38.0,27.0,-100.00,SSW,210,7.0,9.0,65,-99.99,,,-99.99,,2013-03-03 04:01:00,
2013-03-02 21:21:00,38.0,27.0,-100.00,SW,220,6.0,9.0,64,-99.99,,,-99.99,,2013-03-03 04:21:00,
2013-03-02 21:31:00,38.0,27.0,-100.00,SW,235,2.0,7.0,63,-99.99,,,-99.99,,2013-03-03 04:31:00,
2013-03-02 21:41:00,39.0,27.0,-100.00,WSW,250,4.0,7.0,60,-99.99,,,-99.99,,2013-03-03 04:41:00,
2013-03-02 21:51:00,38.0,26.0,-100.00,SE,145,3.0,7.0,61,-99.99,,,-99.99,,2013-03-03 04:51:00,
2013-03-02 22:01:00,39.0,26.0,-100.00,ENE,65,1.0,9.0,59,-99.99,,,-99.99,,2013-03-03 05:01:00,
2013-03-02 22:11:00,40.0,26.0,-100.00,ESE,120,0.0,3.0,57,-99.99,,,-99.99,,2013-03-03 05:11:00,
2013-03-02 22:21:00,40.0,26.0,-100.00,WSW,250,0.0,3.0,56,-99.99,,,-99.99,,2013-03-03 05:21:00,
2013-03-02 22:32:00,40.0,26.0,-100.00,NNW,330,1.0,2.0,55,-99.99,,,-99.99,,2013-03-03 05:32:00,
2013-03-02 22:42:00,40.0,26.0,-100.00,ESE,120,1.0,3.0,54,-99.99,,,-99.99,,2013-03-03 05:42:00,
2013-03-02 22:52:00,38.0,25.0,-100.00,SSW,200,0.0,3.0,57,-99.99,,,-99.99,,2013-03-03 05:52:00,
2013-03-02 23:01:00,38.0,25.0,-100.00,WSW,255,5.0,9.0,57,-99.99,,,-99.99,,2013-03-03 06:01:00,
2013-03-02 23:11:00,37.0,24.0,-100.00,SW,235,2.0,9.0,58,-99.99,,,-99.99,,2013-03-03 06:11:00,
2013-03-02 23:21:00,38.0,24.0,-100.00,South,185,2.0,7.0,57,-99.99,,,-99.99,,2013-03-03 06:21:00,
2013-03-02 23:31:00,37.0,24.0,-100.00,SW,235,1.0,7.0,59,-99.99,,,-99.99,,2013-03-03 06:31:00,
2013-03-02 23:42:00,40.0,25.0,-100.00,NNW,335,2.0,5.0,54,-99.99,,,-99.99,,2013-03-03 06:42:00,
2013-03-02 23:51:00,40.0,25.0,-100.00,NW,315,3.0,6.0,54,-99.99,,,-99.99,,2013-03-03 06:51:00,